Flag for U.S.A. Weather past 2 weeks in El Paso, Texas, U.S.A.

Now
79 °F

Thunderstorms. Mostly cloudy.


Feels Like: 80 °F
Forecast: 74 / 89 °F
Wind: 20 mph from North

Location: El Paso International Airport

Current Time: Jul 31, 2014 at 1:58:08 AM

Latest Report: Jul 31, 2014 at 12:51 AM


Visibility: 10 mi

Pressure: 29.90 "Hg

Humidity: 50%

Dew point: 59 °F

Location of El PasoLocation

Historic Weather in El Paso — Graph

°F

El Paso temperature yesterday

Maximum temperature yesterday: 100 °F (at 4:51 PM)
Minimum temperature yesterday: 73 °F (at 5:51 AM)
Average temperature yesterday: 86 °F

Past Weeks' High & Low Weather Summary

 TemperatureHumidityPressure
High103 °F (Jul 19, 3:51 PM)90% (Jul 29, 7:51 AM)30.11 "Hg (Jul 29, 7:51 AM)
Low68 °F (Jul 16, 5:51 AM)11% (Jul 19, 2:51 PM)29.64 "Hg (Jul 17, 5:51 PM)
Average85 °F38%29.84 "Hg
* Reported Jul 16 12:51 AM — Jul 31 12:51 AM, El Paso, Weather by CustomWeather, © 2014

Note: Actual official high and low records may vary slightly from our data, if they occured in-between our weather recording intervals... More about our weather records

Advertising

El Paso weather history for previous 24 hours

 ConditionsComfort  
Time TempWeatherWind HumidityBarometerVisibility
12:51 AM
Jul 31
79 °FThunderstorms. Mostly cloudy.20 mph50%29.90 "Hg10 mi
11:51 PM
Jul 30
82 °FPassing clouds.8 mph46%29.85 "Hg10 mi
10:51 PM82 °FPassing clouds.No wind48%29.85 "Hg10 mi
9:51 PM82 °FPassing clouds.6 mph48%29.81 "Hg10 mi
8:51 PM85 °FBroken clouds.6 mph37%29.81 "Hg10 mi
8:00 PM90 °FThunderstorms. Broken clouds.17 mph29%30.01 "Hg10 mi
6:51 PM96 °FScattered clouds.8 mph19%29.73 "Hg10 mi
5:51 PM98 °FScattered clouds.8 mph20%29.73 "Hg10 mi
4:51 PM100 °FScattered clouds.15 mph17%29.73 "Hg10 mi
3:51 PM99 °FScattered clouds.10 mph20%29.75 "Hg10 mi
2:51 PM99 °FScattered clouds.9 mph21%29.77 "Hg10 mi
1:51 PM97 °FPassing clouds.12 mph22%29.80 "Hg10 mi
12:51 PM95 °FPassing clouds.9 mph25%29.82 "Hg10 mi
11:51 AM93 °FPassing clouds.7 mph30%29.85 "Hg10 mi
10:51 AM89 °FPassing clouds.5 mph35%29.86 "Hg10 mi
9:51 AM85 °FPassing clouds.No wind45%29.88 "Hg10 mi
8:51 AM79 °FScattered clouds.3 mph62%29.88 "Hg10 mi
7:51 AM75 °FPartly sunny.7 mph74%29.88 "Hg10 mi
6:51 AM73 °FPassing clouds.No wind79%29.86 "Hg10 mi
5:51 AM73 °FPassing clouds.5 mph79%29.85 "Hg10 mi
4:51 AM74 °FPassing clouds.No wind74%29.84 "Hg10 mi
3:51 AM76 °FPassing clouds.5 mph69%29.84 "Hg10 mi
2:51 AM77 °FPassing clouds.3 mph71%29.84 "Hg10 mi
1:51 AM76 °FPassing clouds.3 mph77%29.86 "Hg10 mi
Weather by CustomWeather, © 2014

See weather overviewHow to use our weather pages